Starlink 31102

operational
NORAD ID: 58715 Int'l Des: 2024-002 Owner: SPXS Country: US Constellation: starlink
LEOCIRCULAR

Starlink 31102について

説明を読み込み中...

リアルタイム位置

3D地球を読み込み中...

次回通過

高度履歴

Altitude vs Time

uPlot chart will show altitude changes over time

軌道要素

1 58715U 24002L 25353.09804545 -.00000059 00000-0 10144-4 0 9996
2 58715 53.1616 244.4685 0001199 78.6223 281.4913 15.30190214109678
Epoch: Dec 19, 2025 • Age: 18 hours

現在のステータス

高度 480.1 km
速度 7.63 km/s
衛星直下点 49.14°N, 86.69°W
打ち上げ日 Jan 3, 2024
運用期間 1.9 years
タイプ internet

技術仕様

分類 Payload
質量 730.00 kg
乾燥質量 700.00 kg
総質量 730.00 kg
長さ 0.30 m
直径 4.10 m
スパン 29.00 m
形状 Box + pan
製造者 SPXS
バスタイプ Starlink V2M
フェーズステータス In Orbit
所有者/国 SPXS/US

大規模コンステレーション

Loading constellations...